Regional Weather Roundup
Issued by NWS

Home | Current Version | Previous Version | Text Only | Print | Product List | Glossary Off
Versions: 1 2 3 4 5 6 7 8 9 10 11 12 13 14 15 16 17 18 19 20 21 22 23 24 25 26 27 28 29 30 31 32 33 34 35 36 37 38 39 40 41 42 43 44 45 46 47 48 49 50

000
ASUS43 KDMX 090403
RWRIA

WEATHER ROUNDUP FOR IOWA
NATIONAL WEATHER SERVICE DES MOINES IA
1000 PM CST MON FEB 08 2016

NOTE: "FAIR" INDICATES FEW OR NO CLOUDS BELOW 12,000 FEET WITH NO
SIGNIFICANT WEATHER AND/OR OBSTRUCTIONS TO VISIBILITY.

* - THESE STATIONS ARE NOT NWS STATIONS...THUS NOT UNDER NWS
QUALITY CONTROL.  THEY ALSO DO NOT REPORT WEATHER SUCH
AS PRECIPITATION OR FOG.

IAZ001>003-012>014-020>022-031>034-043>046-090500-
   NORTHWEST IOWA

CITY           SKY/WX    TMP DP  RH WIND       PRES   REMARKS
CARROLL *      PTCLDY    16  10  79 NW22G29   30.03S WCI  -2
CHEROKEE *     PTCLDY    16  12  86 N13       30.07R WCI   2
DENISON *      PTCLDY    19  14  79 N16G24    30.04R WCI   5
LE MARS *      CLEAR     21  16  79 N14G20    30.12R WCI   8
ORANGE CITY *  CLEAR     18  12  79 N13G22    30.08R WCI   4
SHELDON *      FLURRIES  14  10  85 N18       30.07R WCI  -3
SIOUX CITY     PTCLDY    25  13  60 N22       30.09S WCI  10
SPENCER        LGT SNOW  13   7  77 NW29G40   30.04R VSB 3/4 WCI  -8
STORM LAKE *   PTCLDY    14  10  85 NW21G26   30.03S WCI  -4
$$

IAZ055>058-069>071-079>083-090>094-090500-
   SOUTHWEST IOWA

CITY           SKY/WX    TMP DP  RH WIND       PRES   REMARKS
ATLANTIC *     PTCLDY    19  14  79 N9        30.05F WCI   9
AUDUBON *      CLEAR     18  12  79 NW10      30.04S WCI   6
CLARINDA *     CLOUDY    21  18  86 NW6       30.08F WCI  14
COUNCIL BLFS * PTCLDY    25  18  74 NW17      30.07S WCI  11
CRESTON *      MOCLDY    18  12  79 NW17G26   30.02F WCI   2
HARLAN  *      CLEAR     21  14  73 N18G25    30.08F WCI   6
LAMONI         CLOUDY    19  10  68 NW15G28   30.00F WCI   5
RED OAK *      CLOUDY    23  18  80 N8        30.07F WCI  14
SHENANDOAH *   CLEAR     27  21  80 NW9       30.09F WCI  17
$$

IAZ047>049-059>061-072>074-084-090500-
   CENTRAL IOWA

CITY           SKY/WX    TMP DP  RH WIND       PRES   REMARKS
AMES           CLOUDY    14   7  73 NW17G33   29.99R WCI  -3
ANKENY *       CLOUDY    16   7  67 N26G40    30.00R WCI  -3
BOONE *        FLURRIES  14   5  67 NW25      29.97F WCI  -5
CHARITON *     CLOUDY    19  10  68 NW23G36   29.97F WCI   2
DES MOINES     FLURRIES  17   7  64 N23G31    30.00S WCI  -1
GRINNELL*      LGT SNOW  16  14  93 NW18G26   29.94S WCI  -1
KNOXVILLE *    LGT SNOW  18  12  79 NW24G31   29.96F WCI   0
MARSHALLTOWN   LGT SNOW  15   9  76 NW23G36   29.95R WCI  -3
NEWTON *       LGT SNOW  18  10  73 NW25G32   29.96S WCI  -1
PELLA *        FLURRIES  18  12  79 NW21G28   29.98F WCI   1
$$

IAZ004>006-015-016-023>025-035-036-090500-
   NORTH CENTRAL IOWA

CITY           SKY/WX    TMP DP  RH WIND       PRES   REMARKS
ALGONA *       FLURRIES  12   7  79 N22G39    29.98S WCI  -7
CLARION *      FLURRIES  12   5  73 N29G39    29.97R WCI  -9
ESTHERVILLE    MIX PCPN   9   4  80 N35G46    30.03R VSB 1   WCI -15
FORT DODGE *   PTCLDY    12   1  62 NW16G24   30.00S WCI  -4
MASON CITY     LGT SNOW  11   7  84 NW23      29.94S FOG     WCI  -9
FOREST CITY *  CLOUDY    12   7  79 NW22G30   29.94R WCI  -7
WEBSTER CITY * CLOUDY    14   9  79 NW32      29.95F WCI  -7
IOWA FALLS *   CLOUDY    14   9  79 NW24      29.96R WCI  -5
$$

IAZ007>011-017>019-026>030-037>042-050>054-066-090500-
   NORTHEAST IOWA

CITY           SKY/WX    TMP DP  RH WIND       PRES   REMARKS
CEDAR RAPIDS   LGT SNOW  15  12  88 NW17      29.89S FOG     WCI  -1
CHARLES CITY * CLOUDY    14  12  92 NW17G24   29.90S WCI  -3
CLINTON *      CLOUDY    17  10  74 NW18      29.85F WCI   1
DECORAH *      LGT SNOW  14   9  79 N17       29.85F WCI  -3
DUBUQUE        FLURRIES  14   9  80 N13       29.83S WCI   0
MONTICELLO *   FLURRIES  16   9  73 NW14G20   29.87S WCI   1
OELWEIN *      LGT SNOW  14  12  92 NW17      29.88F WCI  -3
WATERLOO       LGT SNOW  15  10  80 NW21      29.91F WCI  -2
$$

IAZ064-065-067-068-078-090500-
   EAST CENTRAL IOWA

CITY           SKY/WX    TMP DP  RH WIND       PRES   REMARKS
DAVENPORT      FLURRIES  17   9  70 NW17      29.86F WCI   1
IOWA CITY      LGT SNOW  17  11  77 NW17G25   29.93S WCI   1
MT. PLEASANT * FLURRIES  19  13  77 NW13G22   29.93S WCI   7
MUSCATINE *    CLOUDY    19  12  73 NW16G23   29.92S WCI   5
QUAD CITIES    CLOUDY    18   9  68 NW16G25   29.87F WCI   3
$$

IAZ062-063-075>077-085>089-095>099-090500-
   SOUTHEAST IOWA

CITY           SKY/WX    TMP DP  RH WIND       PRES   REMARKS
BURLINGTON     CLOUDY    18  10  71 NW20G26   29.90F WCI   2
FAIRFIELD *    LGT SNOW  18  12  79 NW18      29.93S WCI   2
FORT MADISON * LGT SNOW  18  12  79 NW17G23   29.92S WCI   2
KEOKUK *       LGT SNOW  19  14  79 NW13G21   29.93S WCI   7
OSKALOOSA *    FLURRIES  18  14  86 NW22G31   29.95F WCI   0
OTTUMWA        CLOUDY    18  12  77 NW23G30   29.94F WCI   0
WASHINGTON *   FLURRIES  18  12  79 NW15G22   29.94S WCI   3
$$

ABBREVIATIONS USED IN REMARKS
   TC - TEMPERATURES IN CELSIUS
  WCI - WIND CHILL INDEX
   HX - HEAT INDEX
  VSB - VISIBILITY
$$




USA.gov is the U.S. government's official web portal to all federal, state and local government web resources and services.